Tyrone, NM

5:00 PM MDT on August 25, 2016 (GMT -0600)
Grant County

Weather History for KSVC - October, 2012

Change the Weather History Date:

Sunday, October 7, 2012

  Actual Average (KDMN) Record (KDMN)
Temperature  
Mean Temperature 62 °F 65 °F  
Max Temperature 75 °F 81 °F 92 °F (1956)
Min Temperature 50 °F 49 °F 35 °F (1953)
Degree Days  
Heating Degree Days 2    
Growing Degree Days 12 (Base 50)    
Moisture  
Dew Point 32 °F    
Average Humidity 34    
Maximum Humidity 51    
Minimum Humidity 17    
Precipitation  
Precipitation 0.00 in 0.04 in 0.56 in (2002)
Month to date precipitation 0.26  
Year to date precipitation 9.15  
Sea Level Pressure  
Sea Level Pressure 30.12 in    
Wind  
Wind Speed 7 mph (WSW)    
Max Wind Speed 12 mph    
Max Gust Speed 18 mph    
Visibility 10 miles    
Events      
T = Trace of Precipitation, MM = Missing Value Source: NWS Daily Summary

Daily Weather History Graph

Daily Weather History Graph

Search for Another Location

Airport or City:

Trip Planner

Search our weather history database for the weather conditions in past years. The results will help you decide how hot, cold, wet, or windy it might be!

Date:

Astronomy

Oct. 07, 2012 Rise Set
Actual Time 7:11 AM MDT 6:48 PM MDT
Civil Twilight 6:46 AM MDT 7:13 PM MDT
Nautical Twilight 6:18 AM MDT 7:41 PM MDT
Astronomical Twilight 5:49 AM MDT 8:10 PM MDT
Moon No Moon Rise 1:37 PM MDT (10/7)
Length of Visible Light 12h 26m
Length of Day
11h 37m
Waning Gibbous, 55% of the Moon is Illuminated
Oct 7
Waning Gibbous
Oct 8
Last Quarter
Oct 15
New
Oct 21
First Quarter
Oct 29
Full

Hourly Weather History & Observations

Time (MDT) Temp. Dew Point Humidity Pressure Visibility Wind Dir Wind Speed Gust Speed Precip Events Conditions
12:15 AM 57.2 °F 26.6 °F 31% 30.09 in 10.0 mi North 5.8 mph - N/A   Clear
12:35 AM 55.4 °F 26.6 °F 33% 30.09 in 10.0 mi NNW 4.6 mph - N/A   Clear
1:15 AM 53.6 °F 28.4 °F 38% 30.09 in 10.0 mi NNW 8.1 mph - N/A   Clear
1:35 AM 55.4 °F 28.4 °F 36% 30.09 in 10.0 mi NNW 10.4 mph - N/A   Clear
1:55 AM 55.4 °F 28.4 °F 36% 30.09 in 10.0 mi NNW 11.5 mph - N/A   Clear
2:15 AM 57.2 °F 28.4 °F 33% 30.09 in 10.0 mi NNW 9.2 mph - N/A   Clear
2:35 AM 57.2 °F 28.4 °F 33% 30.09 in 10.0 mi NNW 5.8 mph - N/A   Clear
2:55 AM 55.4 °F 28.4 °F 36% 30.09 in 10.0 mi NNW 5.8 mph - N/A   Clear
3:15 AM 57.2 °F 28.4 °F 33% 30.08 in 10.0 mi North 8.1 mph - N/A   Clear
3:35 AM 57.2 °F 28.4 °F 33% 30.09 in 10.0 mi North 5.8 mph - N/A   Clear
3:55 AM 57.2 °F 28.4 °F 33% 30.09 in 10.0 mi North 3.5 mph - N/A   Clear
4:15 AM 57.2 °F 28.4 °F 33% 30.09 in 10.0 mi NNW 3.5 mph - N/A   Clear
4:35 AM 57.2 °F 28.4 °F 33% 30.09 in 10.0 mi West 3.5 mph - N/A   Clear
4:55 AM 55.4 °F 28.4 °F 36% 30.09 in 10.0 mi NW 6.9 mph - N/A   Clear
5:15 AM 55.4 °F 30.2 °F 38% 30.10 in 10.0 mi WNW 5.8 mph - N/A   Clear
5:55 AM 55.4 °F 28.4 °F 36% 30.11 in 10.0 mi SE 6.9 mph - N/A   Clear
6:15 AM 53.6 °F 26.6 °F 35% 30.11 in 10.0 mi SE 4.6 mph - N/A   Clear
6:35 AM 53.6 °F 26.6 °F 35% 30.12 in 10.0 mi SE 4.6 mph - N/A   Clear
6:55 AM 53.6 °F 28.4 °F 38% 30.13 in 10.0 mi Calm Calm - N/A   Clear
7:15 AM 50.0 °F 28.4 °F 43% 30.13 in 10.0 mi Calm Calm - N/A   Clear
7:35 AM 50.0 °F 30.2 °F 47% 30.14 in 10.0 mi WSW 3.5 mph - N/A   Clear
7:55 AM 51.8 °F 32.0 °F 47% 30.15 in 10.0 mi WSW 4.6 mph - N/A   Clear
8:15 AM 53.6 °F 33.8 °F 47% 30.15 in 10.0 mi SW 4.6 mph - N/A   Clear
8:35 AM 53.6 °F 35.6 °F 51% 30.17 in 10.0 mi South 6.9 mph - N/A   Clear
8:55 AM 55.4 °F 35.6 °F 47% 30.18 in 10.0 mi South 6.9 mph - N/A   Clear
9:15 AM 55.4 °F 35.6 °F 47% 30.18 in 10.0 mi SSE 8.1 mph - N/A   Clear
9:35 AM 55.4 °F 35.6 °F 47% 30.19 in 10.0 mi South 6.9 mph - N/A   Clear
9:55 AM 57.2 °F 35.6 °F 44% 30.19 in 10.0 mi South 8.1 mph - N/A   Clear
10:15 AM 57.2 °F 37.4 °F 48% 30.19 in 10.0 mi SSE 9.2 mph - N/A   Clear
10:35 AM 59.0 °F 37.4 °F 45% 30.19 in 10.0 mi South 8.1 mph - N/A   Clear
10:55 AM 59.0 °F 37.4 °F 45% 30.19 in 10.0 mi SE 5.8 mph - N/A   Clear
11:15 AM 60.8 °F 37.4 °F 42% 30.18 in 10.0 mi SSE 9.2 mph - N/A   Clear
11:35 AM 62.6 °F 37.4 °F 39% 30.18 in 10.0 mi South 8.1 mph - N/A   Clear
11:55 AM 62.6 °F 37.4 °F 39% 30.18 in 10.0 mi South 8.1 mph 18.4 mph N/A   Clear
12:15 PM 62.6 °F 37.4 °F 39% 30.17 in 10.0 mi SSE 8.1 mph - N/A   Clear
12:35 PM 64.4 °F 37.4 °F 37% 30.16 in 10.0 mi SSE 5.8 mph - N/A   Clear
12:55 PM 64.4 °F 37.4 °F 37% 30.16 in 10.0 mi South 8.1 mph - N/A   Clear
1:15 PM 64.4 °F 35.6 °F 34% 30.15 in 10.0 mi SSE 10.4 mph - N/A   Clear
1:35 PM 64.4 °F 37.4 °F 37% 30.14 in 10.0 mi SSE 8.1 mph - N/A   Clear
1:55 PM 64.4 °F 35.6 °F 34% 30.12 in 10.0 mi SSE 4.6 mph - N/A   Clear
2:15 PM 68.0 °F 35.6 °F 30% 30.12 in 10.0 mi SE 5.8 mph - N/A   Clear
2:35 PM 69.8 °F 35.6 °F 28% 30.11 in 10.0 mi South 11.5 mph - N/A   Clear
2:55 PM 71.6 °F 35.6 °F 27% 30.10 in 10.0 mi SE 6.9 mph - N/A   Clear
3:15 PM 71.6 °F 35.6 °F 27% 30.09 in 10.0 mi SSW 9.2 mph - N/A   Clear
3:35 PM 73.4 °F 35.6 °F 25% 30.09 in 10.0 mi South 11.5 mph - N/A   Clear
3:55 PM 73.4 °F 35.6 °F 25% 30.09 in 10.0 mi SSW 9.2 mph - N/A   Clear
4:15 PM 73.4 °F 33.8 °F 23% 30.08 in 10.0 mi South 9.2 mph - N/A   Clear
4:35 PM 75.2 °F 32.0 °F 21% 30.07 in 10.0 mi SSW 9.2 mph - N/A   Clear
4:55 PM 75.2 °F 26.6 °F 17% 30.07 in 10.0 mi West 6.9 mph - N/A   Clear
5:15 PM 75.2 °F 28.4 °F 18% 30.07 in 10.0 mi West 9.2 mph - N/A   Clear
5:35 PM 75.2 °F 28.4 °F 18% 30.07 in 10.0 mi West 10.4 mph - N/A   Clear
5:55 PM 75.2 °F 30.2 °F 19% 30.07 in 10.0 mi WNW 10.4 mph - N/A   Clear
6:15 PM 73.4 °F 30.2 °F 20% 30.08 in 10.0 mi West 10.4 mph 18.4 mph N/A   Clear
6:35 PM 71.6 °F 32.0 °F 23% 30.08 in 10.0 mi West 9.2 mph - N/A   Clear
6:55 PM 69.8 °F 32.0 °F 25% 30.09 in 10.0 mi West 5.8 mph - N/A   Clear
7:15 PM 68.0 °F 32.0 °F 26% 30.09 in 10.0 mi West 5.8 mph - N/A   Clear
7:35 PM 64.4 °F 32.0 °F 30% 30.10 in 10.0 mi West 5.8 mph - N/A   Clear
7:55 PM 60.8 °F 30.2 °F 31% 30.10 in 10.0 mi West 4.6 mph - N/A   Clear
8:15 PM 62.6 °F 28.4 °F 27% 30.11 in 10.0 mi WNW 4.6 mph - N/A   Clear
8:35 PM 62.6 °F 28.4 °F 27% 30.12 in 10.0 mi WNW 5.8 mph - N/A   Clear
8:55 PM 59.0 °F 28.4 °F 31% 30.12 in 10.0 mi WNW 9.2 mph - N/A   Clear
9:15 PM 53.6 °F 28.4 °F 38% 30.12 in 10.0 mi NNW 9.2 mph - N/A   Clear
9:35 PM 57.2 °F 28.4 °F 33% 30.12 in 10.0 mi North 9.2 mph - N/A   Clear
9:55 PM 55.4 °F 28.4 °F 36% 30.13 in 10.0 mi North 10.4 mph - N/A   Clear
10:15 PM 55.4 °F 28.4 °F 36% 30.13 in 10.0 mi North 8.1 mph - N/A   Clear
10:35 PM 55.4 °F 28.4 °F 36% 30.14 in 10.0 mi SW 4.6 mph - N/A   Clear
10:55 PM 55.4 °F 28.4 °F 36% 30.14 in 10.0 mi West 3.5 mph - N/A   Clear
11:15 PM 55.4 °F 28.4 °F 36% 30.14 in 10.0 mi East 5.8 mph - N/A   Clear
11:35 PM 53.6 °F 28.4 °F 38% 30.14 in 10.0 mi NNE 6.9 mph - N/A   Clear
11:55 PM 53.6 °F 30.2 °F 41% 30.15 in 10.0 mi ENE 5.8 mph - N/A   Clear